CYAM

Sault Ste Marie  Airport

Sault Ste Marie, Ontario, Canada
Issued Wind Visibility Ceiling Temperature Dew Point Humidity Barometer
Nov-18
04:07 UTC
120°
5 KTS
2 1/2 miles Broken
400' AGL
C
36° F
C
34° F
93% 29.65" Hg
1005.1 hPa
LIFR
Nov-18
03:31 UTC
120°
6 KTS
2 1/2 miles Broken
400' AGL
C
34° F
C
34° F
100% 29.67" Hg
1005.7 hPa
LIFR
Nov-18
03:00 UTC
120°
5 KTS
2 1/2 miles Broken
2,100' AGL
C
34° F
C
34° F
100% 29.68" Hg
1006.3 hPa
IFR
Nov-18
02:34 UTC
130°
6 KTS
2 1/2 miles Broken
2,300' AGL
C
34° F
C
34° F
100% 29.7" Hg
1006.7 hPa
IFR
Nov-18
02:00 UTC
110°
7 KTS
8 miles Broken
2,700' AGL
C
34° F
C
32° F
93% 29.71" Hg
1007.4 hPa
MVFR
Nov-18
01:57 UTC
110°
7 KTS
8 miles Broken
2,700' AGL
C
34° F
C
32° F
93% 29.72" Hg
1007.5 hPa
MVFR
Nov-18
01:00 UTC
110°
8 KTS
8 miles Broken
5,400' AGL
C
34° F
C
32° F
93% 29.74" Hg
1008.4 hPa
VFR
Nov-18
00:00 UTC
120°
7 KTS
Gust 15 KTS
15 miles Broken
6,100' AGL
C
36° F
C
32° F
87% 29.78" Hg
1009.6 hPa
VFR
Nov-17
23:42 UTC
110°
7 KTS
Gust 15 KTS
15 miles Broken
6,700' AGL
C
36° F
-1° C
30° F
81% 29.79" Hg
1009.8 hPa
VFR
Nov-17
23:00 UTC
120°
11 KTS
Gust 17 KTS
15 miles Broken
7,100' AGL
C
36° F
-1° C
30° F
81% 29.79" Hg
1009.9 hPa
VFR
Nov-17
22:36 UTC
120°
9 KTS
Gust 18 KTS
15 miles Broken
6,800' AGL
C
36° F
-1° C
30° F
81% 29.79" Hg
1009.8 hPa
VFR
Nov-17
22:17 UTC
120°
12 KTS
Gust 19 KTS
15 miles Broken
6,900' AGL
C
36° F
-2° C
28° F
75% 29.79" Hg
1009.8 hPa
VFR
Nov-17
22:00 UTC
110°
8 KTS
Gust 22 KTS
15 miles Broken
7,300' AGL
C
36° F
-2° C
28° F
75% 29.78" Hg
1009.5 hPa
VFR
Nov-17
21:00 UTC
120°
8 KTS
Gust 22 KTS
15 miles Broken
7,900' AGL
C
36° F
-2° C
28° F
75% 29.85" Hg
1012.1 hPa
VFR
Nov-17
20:00 UTC
120°
12 KTS
Gust 21 KTS
15 miles Broken
7,600' AGL
C
34° F
-2° C
28° F
81% 29.86" Hg
1012.3 hPa
VFR
Nov-17
19:00 UTC
120°
10 KTS
Gust 18 KTS
15 miles Broken
8,700' AGL
C
34° F
-3° C
27° F
75% 29.93" Hg
1014.9 hPa
VFR
Nov-17
18:00 UTC
140°
9 KTS
Gust 17 KTS
15 miles Broken
4,400' AGL
C
34° F
-3° C
27° F
75% 30.01" Hg
1017.5 hPa
VFR
Nov-17
17:00 UTC
130°
11 KTS
Gust 20 KTS
15 miles Broken
2,000' AGL
C
32° F
-3° C
27° F
80% 30.02" Hg
1017.7 hPa
MVFR
Nov-17
16:00 UTC
130°
11 KTS
Gust 18 KTS
15 miles Broken
1,500' AGL
-1° C
30° F
-4° C
25° F
80% 30.08" Hg
1020.1 hPa
MVFR
Nov-17
15:00 UTC
100°
8 KTS
15 miles Broken
1,400' AGL
-3° C
27° F
-6° C
21° F
80% 30.12" Hg
1021.5 hPa
MVFR
Nov-17
14:00 UTC
110°
9 KTS
Gust 17 KTS
15 miles Broken
1,700' AGL
-4° C
25° F
-7° C
19° F
80% 30.14" Hg
1022.1 hPa
MVFR
Nov-17
13:00 UTC
100°
10 KTS
Gust 17 KTS
15 miles Broken
1,300' AGL
-5° C
23° F
-8° C
18° F
80% 30.17" Hg
1023.2 hPa
MVFR
Nov-17
12:00 UTC
100°
8 KTS
15 miles Overcast
1,600' AGL
-5° C
23° F
-8° C
18° F
80% 30.2" Hg
1024.1 hPa
MVFR
Nov-17
11:00 UTC
100°
8 KTS
15 miles Overcast
1,600' AGL
-5° C
23° F
-9° C
16° F
74% 30.25" Hg
1025.7 hPa
MVFR
Nov-17
10:00 UTC
100°
8 KTS
15 miles Overcast
15,000' AGL
-6° C
21° F
-9° C
16° F
80% 30.24" Hg
1025.3 hPa
VFR
Nov-17
09:00 UTC
100°
6 KTS
15 miles Overcast
16,000' AGL
-6° C
21° F
-9° C
16° F
80% 30.25" Hg
1025.6 hPa
VFR
Nov-17
08:00 UTC
100°
6 KTS
15 miles Overcast
21,000' AGL
-6° C
21° F
-9° C
16° F
80% 30.25" Hg
1025.7 hPa
VFR
Nov-17
07:00 UTC
110°
5 KTS
15 miles Broken
21,000' AGL
-6° C
21° F
-9° C
16° F
80% 30.26" Hg
1026.1 hPa
VFR
Nov-17
06:00 UTC
100°
9 KTS
15 miles Broken
21,000' AGL
-6° C
21° F
-10° C
14° F
74% 30.26" Hg
1026.1 hPa
VFR
Nov-17
05:00 UTC
100°
7 KTS
15 miles Broken
1,700' AGL
-6° C
21° F
-10° C
14° F
74% 30.28" Hg
1026.6 hPa
MVFR